KURESSAARE current weather conditions

sailwx.info

Air temperature -0.0° C
Visibility: greater than 0.2 NM
Dewpoint -0.0° C
Present weather: Fog.

Last reported at 2015-Feb-27 19:50 UTC.
Time now 2015-Feb-27 21:14 UTC

Location: N 58°14' E 022°31'.
View on Google Maps.

See reports from other nearby stations

  
Tides and Currents Weather Stations Pressure Air Temp Water Temp Dewpoint Dewpoint Depression Visibility Wind Speed Wind Dir Waves Ship Positions
date/time (UTC)wind fromknots sea level pressurealtimeterstation pressurevisibilityair tempwater tempwave heightnotes
2015-Feb-27 19:50 0.2-0.0 Fog.
2015-Feb-27 18:50 140 2 0.3-0.0 Freezing fog.
2015-Feb-27 17:50 130 3 0.4-0.0 Freezing fog.
2015-Feb-27 16:50 120 4 0.7-0.0 Mist.
2015-Feb-27 15:50 140 7 1.1-0.0 Mist.
2015-Feb-27 14:50 130 7 3.2-0.0
2015-Feb-27 13:50 130 7 3.2-0.0
2015-Feb-27 12:50 130 6 1.9-0.0 Mist.
2015-Feb-27 11:50 130 6 0.4-0.0 Freezing fog.
2015-Feb-27 10:50 130 7 0.2-0.0 Freezing fog.
2015-Feb-27 09:50 140 7 1.0-0.0 Mist.
2015-Feb-27 08:50 150 7 4.3-0.0
2015-Feb-27 07:50 120 5 2.0-0.0 Mist.
2015-Feb-27 06:50 130 6 0.4-1.0 Freezing fog.
2015-Feb-27 05:50 140 10 0.4-1.0 Light freezing drizzle. Freezing fog.
2015-Feb-27 03:50 130 7 0.9-1.0 Freezing fog.
2015-Feb-27 02:50 150 8 1.1-1.0 Mist.
2015-Feb-27 01:50 160 7 0.9-0.0 Freezing fog.
2015-Feb-27 00:50 150 8 2.4 1.0 Mist.
2015-Feb-26 23:50 160 8 4.9 1.0
2015-Feb-26 22:50 160 7 5.4 1.0
2015-Feb-26 21:50 160 6 5.4 1.0
2015-Feb-26 20:50 170 5 5.4 1.0
2015-Feb-26 19:50 240 3 5.4 1.0
2015-Feb-26 18:50 220 5 5.4 1.0
2015-Feb-26 17:50 220 6 5.4 1.0
2015-Feb-26 16:50 240 5 5.4 1.0
2015-Feb-26 15:50 250 4 4.9 2.0
2015-Feb-26 14:50 250 4 4.9 2.0
2015-Feb-26 13:50 200 5 4.3 2.0
2015-Feb-26 12:50 210 5 4.9 2.0
2015-Feb-26 11:50 240 6 4.3 2.0
2015-Feb-26 10:50 230 5 4.9 2.0
2015-Feb-26 09:50 220 6 2.3 2.0 Mist.
2015-Feb-26 08:50 210 6 0.4 2.0 Light drizzle. Fog.
2015-Feb-26 07:50 220 6 0.4 1.0 Light drizzle. Fog.
2015-Feb-26 06:50 200 6 0.3 1.0 Light drizzle. Fog.
2015-Feb-26 05:50 220 5 0.2 1.0 Fog.
2015-Feb-26 04:50 200 6 0.3 1.0 Light drizzle. Fog.
2015-Feb-26 03:50 190 5 0.3 2.0 Light rain. Fog.
2015-Feb-26 02:50 220 4 0.5 2.0 Fog.
2015-Feb-26 01:50 210 4 0.5 2.0 Fog.
2015-Feb-26 00:50 240 3 0.6 2.0 Fog.
2015-Feb-25 23:50 0.5 2.0 Fog.
2015-Feb-25 22:50 220 4 0.3 1.0 Fog.
2015-Feb-25 21:50 210 4 0.6 2.0 Fog.